Regional Weather Roundup
Issued by NWS

Home | Current Version | Previous Version | Graphics & Text | Print | Product List | Glossary On
Versions: 1 2 3 4 5 6 7 8 9 10 11 12 13 14 15 16 17 18 19 20 21 22 23 24 25 26 27 28 29 30 31 32 33 34 35 36 37 38 39 40 41 42 43 44 45 46 47 48 49 50
000
ASUS45 KBOU 021607
RWRCO

WEATHER ROUNDUP FOR COLORADO
NATIONAL WEATHER SERVICE DENVER/BOULDER CO
1000 AM MDT TUE SEP 02 2014

NOTE: "FAIR" INDICATES FEW OR NO CLOUDS BELOW 12000 FEET WITH NO
SIGNIFICANT WEATHER AND/OR OBSTRUCTIONS TO VISIBILITY.

COZ001>005-013-030-031-021700-
...NORTHWEST COLORADO...

CITY           SKY/WX    TMP DP  RH WIND       PRES   REMARKS
CRAIG          SUNNY     62  42  47 CALM      30.21F
HAYDEN         SUNNY     57  36  44 SE9       30.22F
MEEKER         SUNNY     59  39  47 CALM      30.22F
MOUNT WERNER   NOT AVBL
STEAMBOAT SPGS SUNNY     53  41  64 CALM      30.24F
WALDEN         SUNNY     59  36  41 S5        30.27F
$$

COZ006>008-011-021700-
...WEST CENTRAL VALLEYS...

CITY           SKY/WX    TMP DP  RH WIND       PRES   REMARKS
GRAND JUNCTION SUNNY     71  40  32 SE10      30.12S
MONTROSE       SUNNY     69  39  33 CALM      30.20S
EAGLE          SUNNY     57  37  47 CALM      30.28F
RIFLE          SUNNY     62  39  42 CALM      30.19F
DELTA          SUNNY     68  40  36 CALM      30.17F
NUCLA          SUNNY     66  41  39 CALM      30.23S
$$

COZ017>023-064>068-021700-
...SOUTHWEST COLORADO...

CITY           SKY/WX    TMP DP  RH WIND       PRES   REMARKS
DURANGO        SUNNY     69  35  28 E3        30.25F
CORTEZ         SUNNY     71  42  35 VRB3      30.19S
PAGOSA SPRINGS SUNNY     67  31  26 CALM      30.34R
TELLURIDE      SUNNY     64  37  36 CALM      30.40F
WOLF CREEK PAS SUNNY     52  30  43 S8        30.61S
$$

COZ009-010-012-014-032>034-037-058>063-021700-
...CENTRAL COLORADO...

CITY           SKY/WX    TMP DP  RH WIND       PRES   REMARKS
ASPEN          SUNNY     65  34  31 CALM      30.30S
BUENA VISTA    SUNNY     61  31  31 CALM      30.32S
COPPER MTN     SUNNY     54  23  30 W21G36    30.56F
BERTHOUD PASS  FAIR      43  41  93 W36G47    30.54F
COTTONWOOD PAS SUNNY     64  27  24 CALM      30.43R
GUNNISON       SUNNY     54  34  47 CALM      30.38F
KREMMLING      SUNNY     54  34  47 CALM      30.31F
LEADVILLE      SUNNY     61  27  27 W13       30.42S
MONARCH PASS   SUNNY     48  28  46 SW18G30   30.69R
SALIDA         SUNNY     62  34  34 CALM      30.36F
SUNLIGHT       SUNNY     57  34  41 CALM      30.51R
WILKERSON PASS NOT AVBL
$$

COZ069>075-021700-
...SAN LUIS VALLEY/SANGRE DE CRISTO MOUNTAINS...

CITY           SKY/WX    TMP DP  RH WIND       PRES   REMARKS
ALAMOSA        SUNNY     65  35  33 S3        30.31F
LA VETA PASS   NOT AVBL
SAGUACHE       NOT AVBL
$$

COZ035-036-038>040-021700-
...NORTHERN COLORADO FRONT RANGE...

CITY           SKY/WX    TMP DP  RH WIND       PRES   REMARKS
DENVER INTL AP SUNNY     66  45  46 SW5       30.12S
DMNS CITY PARK   N/A     68  42  38 S3        30.10F
AURORA         SUNNY     67  47  47 CALM      30.13S
FRONT RANGE AP SUNNY     68  48  49 CALM      30.14S
ERIE MUNI ARPT   N/A     67  43  41 CALM      30.10F
BOULDER MUN AP SUNNY     64  43  45 CALM      30.10F
CENTENNIAL     SUNNY     70  46  42 SE5       30.13F
BROOMFIELD     SUNNY     64  41  42 CALM      30.13F
FORT COLLINS   SUNNY     61  46  59 NE3       30.12F
LONGMONT       SUNNY     69  45  42 CALM      30.11F
$$

COZ041-046-047-076>085-087-088-021700-
...PIKES PEAK/PALMER DIVIDE AND SOUTHERN FOOTHILLS...

CITY           SKY/WX    TMP DP  RH WIND       PRES   REMARKS
COLO. SPRINGS  PTSUNNY   66  55  67 S12       30.22R
A. F. ACADEMY  PTSUNNY   64  53  69 SE8       30.22S
ELLICOTT       NOT AVBL
FALCON         CLOUDY    63  56  79 S9        30.26R
FORT CARSON    MOSUNNY   68  56  65 SE12      30.19R
LIMON          CLOUDY    66  57  72 S16       30.16S
MONUMENT HILL  SUNNY     64  52  63 S18       30.21S
TRINIDAD       SUNNY     70  48  45 N5        30.19F
$$

COZ042>045-048>051-090-091-021700-
...NORTHEAST COLORADO...

CITY           SKY/WX    TMP DP  RH WIND       PRES   REMARKS
GREELEY ARPT   SUNNY     63  46  55 E3        30.11F
AKRON          SUNNY     63  50  62 SW8       30.11S
BURLINGTON     SUNNY     70  57  63 S15       30.11F
WRAY             N/A     71  59  65 S14       30.09F
STERLING       SUNNY     66  54  63 SW5       30.07S
HOLYOKE        SUNNY     70  57  64 SW7       30.08F
FORT MORGAN    SUNNY     65  45  49 SW5       30.10F
$$

COZ086-089-092>099-021700-
...SOUTHEAST COLORADO...

CITY           SKY/WX    TMP DP  RH WIND       PRES   REMARKS
PUEBLO         CLOUDY    68  55  63 VRB5      30.13F
LA JUNTA       CLOUDY    68  61  78 E9        30.13S
LAMAR          MOSUNNY   70  61  73 E9        30.09S
SPRINGFIELD      N/A     71  59  65 NE6       30.13F
$$



USA.gov is the U.S. government's official web portal to all federal, state and local government web resources and services.